contact:dominique.lefevre@mio.osupytheas.fr, maurice.libes@osupytheas.fr, didier.mallarino@osupytheas.fr
Project:EMSO http://www.emso-fr.org/EMSO-France
Depth: 2436.0 m
Title:EMSO Ligure Ouest : Data MII capteur CSTAR
DateTime,Latitude,Longitude,Instrument_Serial,Reference_Counts,Signal_Counts,Corrected_Signal_raw_counts,Calculated_Beam_c_inverse_meters,Internal_thermistor_counts
DateTime,Latitude,Longitude,Instrument_Serial,Reference_Counts,Signal_Counts,Corrected_Signal_raw_counts,Calculated_Beam_c_inverse_meters,Internal_thermistor_counts
2023-03-06T00:01:07,42.805,6.029,CST-1368DR,4362,4782,11646,01.173,551
2023-03-06T00:04:08,42.805,6.029,CST-1368DR,4362,4781,11643,01.174,551
2023-03-06T00:07:10,42.805,6.029,CST-1368DR,4362,4782,11645,01.174,551
2023-03-06T00:10:11,42.805,6.029,CST-1368DR,4362,4780,11641,01.175,551
2023-03-06T00:13:13,42.805,6.029,CST-1368DR,4362,4782,11645,01.174,551
2023-03-06T00:16:14,42.805,6.029,CST-1368DR,4362,4782,11647,01.173,551
2023-03-06T00:19:16,42.805,6.029,CST-1368DR,4362,4781,11643,01.174,551
2023-03-06T00:22:18,42.805,6.029,CST-1368DR,4362,4780,11640,01.175,551
2023-03-06T00:25:19,42.805,6.029,CST-1368DR,4362,4779,11639,01.176,551
2023-03-06T00:28:21,42.805,6.029,CST-1368DR,4362,4779,11639,01.176,551
2023-03-06T00:31:22,42.805,6.029,CST-1368DR,4362,4779,11637,01.176,551
2023-03-06T00:34:24,42.805,6.029,CST-1368DR,4362,4780,11640,01.175,551
2023-03-06T00:37:26,42.805,6.029,CST-1368DR,4362,4778,11636,01.177,551
2023-03-06T00:40:27,42.805,6.029,CST-1368DR,4362,4779,11638,01.176,551
2023-03-06T00:43:29,42.805,6.029,CST-1368DR,4362,4780,11642,01.175,551
2023-03-06T00:46:30,42.805,6.029,CST-1368DR,4362,4781,11644,01.174,551
2023-03-06T00:49:32,42.805,6.029,CST-1368DR,4362,4782,11645,01.174,551
2023-03-06T00:52:33,42.805,6.029,CST-1368DR,4362,4782,11646,01.173,551
2023-03-06T00:55:35,42.805,6.029,CST-1368DR,4362,4780,11641,01.175,551
2023-03-06T00:58:37,42.805,6.029,CST-1368DR,4362,4782,11646,01.173,551
2023-03-06T01:01:38,42.805,6.029,CST-1368DR,4362,4782,11646,01.173,551
2023-03-06T01:04:40,42.805,6.029,CST-1368DR,4362,4784,11651,01.172,551
2023-03-06T01:07:41,42.805,6.029,CST-1368DR,4362,4783,11648,01.173,550
2023-03-06T01:10:43,42.805,6.029,CST-1368DR,4362,4799,11688,01.159,551
2023-03-06T01:13:44,42.805,6.029,CST-1368DR,4362,4782,11647,01.173,551
2023-03-06T01:16:46,42.805,6.029,CST-1368DR,4362,4782,11646,01.173,551
2023-03-06T01:19:48,42.805,6.029,CST-1368DR,4362,4783,11647,01.173,551
2023-03-06T01:22:49,42.805,6.029,CST-1368DR,4362,4782,11645,01.174,551
2023-03-06T01:25:51,42.805,6.029,CST-1368DR,4362,4784,11650,01.172,551
2023-03-06T01:28:52,42.805,6.029,CST-1368DR,4362,4781,11643,01.174,551
2023-03-06T01:31:54,42.805,6.029,CST-1368DR,4362,4783,11648,01.173,551
2023-03-06T01:34:55,42.805,6.029,CST-1368DR,4362,4785,11652,01.171,551
2023-03-06T01:37:57,42.805,6.029,CST-1368DR,4362,4784,11651,01.172,551
2023-03-06T01:40:59,42.805,6.029,CST-1368DR,4362,4786,11654,01.171,551
2023-03-06T01:44:00,42.805,6.029,CST-1368DR,4362,4785,11653,01.171,551
2023-03-06T01:47:02,42.805,6.029,CST-1368DR,4362,4787,11657,01.170,551
2023-03-06T01:50:03,42.805,6.029,CST-1368DR,4362,4784,11651,01.172,551
2023-03-06T01:53:05,42.805,6.029,CST-1368DR,4362,4786,11656,01.170,551
2023-03-06T01:56:07,42.805,6.029,CST-1368DR,4362,4786,11655,01.170,551
2023-03-06T01:59:08,42.805,6.029,CST-1368DR,4362,4782,11647,01.173,551
2023-03-06T02:02:10,42.805,6.029,CST-1368DR,4362,4784,11651,01.172,551
2023-03-06T02:05:11,42.805,6.029,CST-1368DR,4362,4785,11653,01.171,551
2023-03-06T02:08:13,42.805,6.029,CST-1368DR,4362,4786,11656,01.170,551
2023-03-06T02:11:14,42.805,6.029,CST-1368DR,4362,4786,11654,01.171,551
2023-03-06T02:14:16,42.805,6.029,CST-1368DR,4362,4784,11650,01.172,551
2023-03-06T02:17:18,42.805,6.029,CST-1368DR,4362,4783,11648,01.173,551
2023-03-06T02:20:19,42.805,6.029,CST-1368DR,4362,4782,11645,01.174,551
2023-03-06T02:23:21,42.805,6.029,CST-1368DR,4362,4782,11645,01.174,551
2023-03-06T02:26:22,42.805,6.029,CST-1368DR,4362,4781,11643,01.174,551
2023-03-06T02:29:24,42.805,6.029,CST-1368DR,4362,4782,11646,01.173,551
2023-03-06T02:32:25,42.805,6.029,CST-1368DR,4362,4781,11644,01.174,551
2023-03-06T02:35:27,42.805,6.029,CST-1368DR,4362,4782,11645,01.174,551
2023-03-06T02:38:29,42.805,6.029,CST-1368DR,4362,4781,11644,01.174,551
2023-03-06T02:41:30,42.805,6.029,CST-1368DR,4362,4783,11648,01.173,551
2023-03-06T02:44:32,42.805,6.029,CST-1368DR,4362,4780,11641,01.175,551
2023-03-06T02:47:33,42.805,6.029,CST-1368DR,4362,4782,11647,01.173,551
2023-03-06T02:50:35,42.805,6.029,CST-1368DR,4362,4782,11646,01.173,551
2023-03-06T02:53:37,42.805,6.029,CST-1368DR,4362,4775,11628,01.180,551
2023-03-06T02:56:38,42.805,6.029,CST-1368DR,4362,4777,11634,01.177,551
2023-03-06T02:59:40,42.805,6.029,CST-1368DR,4362,4783,11648,01.173,551
2023-03-06T03:02:41,42.805,6.029,CST-1368DR,4362,4782,11645,01.174,551
2023-03-06T03:05:43,42.805,6.029,CST-1368DR,4362,4782,11646,01.173,551
2023-03-06T03:08:44,42.805,6.029,CST-1368DR,4362,4782,11646,01.173,551
2023-03-06T03:11:46,42.805,6.029,CST-1368DR,4362,4781,11643,01.174,551
2023-03-06T03:14:48,42.805,6.029,CST-1368DR,4362,4781,11642,01.175,551
2023-03-06T03:17:49,42.805,6.029,CST-1368DR,4362,4783,11649,01.172,551
2023-03-06T03:20:51,42.805,6.029,CST-1368DR,4362,4782,11646,01.173,551
2023-03-06T03:23:52,42.805,6.029,CST-1368DR,4362,4783,11648,01.173,551
2023-03-06T03:26:54,42.805,6.029,CST-1368DR,4362,4780,11640,01.175,551
2023-03-06T03:29:55,42.805,6.029,CST-1368DR,4362,4781,11644,01.174,551
2023-03-06T03:32:57,42.805,6.029,CST-1368DR,4362,4779,11638,01.176,551
2023-03-06T03:35:59,42.805,6.029,CST-1368DR,4362,4777,11633,01.178,551
2023-03-06T03:39:00,42.805,6.029,CST-1368DR,4362,4777,11633,01.178,551
2023-03-06T03:42:02,42.805,6.029,CST-1368DR,4362,4773,11624,01.181,551
2023-03-06T03:45:03,42.805,6.029,CST-1368DR,4362,4773,11623,01.181,551
2023-03-06T03:48:05,42.805,6.029,CST-1368DR,4362,4773,11625,01.181,551
2023-03-06T03:51:07,42.805,6.029,CST-1368DR,4362,4771,11618,01.183,551
2023-03-06T03:54:08,42.805,6.029,CST-1368DR,4362,4774,11627,01.180,551
2023-03-06T03:57:10,42.805,6.029,CST-1368DR,4362,4777,11633,01.178,551
2023-03-06T04:00:11,42.805,6.029,CST-1368DR,4362,4778,11636,01.177,551
2023-03-06T04:03:13,42.805,6.029,CST-1368DR,4362,4780,11640,01.175,551
2023-03-06T04:06:14,42.805,6.029,CST-1368DR,4362,4778,11636,01.177,551
2023-03-06T04:09:16,42.805,6.029,CST-1368DR,4362,4781,11643,01.174,551
2023-03-06T04:12:18,42.805,6.029,CST-1368DR,4362,4778,11636,01.177,551
2023-03-06T04:15:19,42.805,6.029,CST-1368DR,4362,4777,11633,01.178,551
2023-03-06T04:18:21,42.805,6.029,CST-1368DR,4362,4780,11642,01.175,551
2023-03-06T04:21:22,42.805,6.029,CST-1368DR,4362,4777,11634,01.177,551
2023-03-06T04:24:24,42.805,6.029,CST-1368DR,4362,4781,11643,01.174,551
2023-03-06T04:27:25,42.805,6.029,CST-1368DR,4362,4779,11638,01.176,551
2023-03-06T04:30:27,42.805,6.029,CST-1368DR,4362,4783,11649,01.172,551
2023-03-06T04:33:29,42.805,6.029,CST-1368DR,4362,4781,11644,01.174,551
2023-03-06T04:36:30,42.805,6.029,CST-1368DR,4362,4780,11641,01.175,551
2023-03-06T04:39:32,42.805,6.029,CST-1368DR,4362,4781,11644,01.174,551
2023-03-06T04:42:33,42.805,6.029,CST-1368DR,4362,4777,11634,01.177,551
2023-03-06T04:45:35,42.805,6.029,CST-1368DR,4362,4780,11640,01.175,551
2023-03-06T04:48:37,42.805,6.029,CST-1368DR,4362,4781,11642,01.175,551
2023-03-06T04:51:38,42.805,6.029,CST-1368DR,4362,4781,11642,01.175,551
2023-03-06T04:54:40,42.805,6.029,CST-1368DR,4362,4784,11651,01.172,551
2023-03-06T04:57:41,42.805,6.029,CST-1368DR,4362,4781,11642,01.175,551
2023-03-06T05:00:43,42.805,6.029,CST-1368DR,4362,4777,11634,01.177,551
2023-03-06T05:03:44,42.805,6.029,CST-1368DR,4362,4777,11633,01.178,551
2023-03-06T05:06:46,42.805,6.029,CST-1368DR,4362,4782,11646,01.173,551
2023-03-06T05:09:48,42.805,6.029,CST-1368DR,4362,4782,11646,01.173,551
2023-03-06T05:12:49,42.805,6.029,CST-1368DR,4362,4782,11647,01.173,551
2023-03-06T05:15:51,42.805,6.029,CST-1368DR,4362,4781,11642,01.175,551
2023-03-06T05:18:52,42.805,6.029,CST-1368DR,4362,4779,11637,01.176,551
2023-03-06T05:21:54,42.805,6.029,CST-1368DR,4362,4781,11643,01.174,551
2023-03-06T05:24:55,42.805,6.029,CST-1368DR,4362,4780,11640,01.175,551
2023-03-06T05:27:57,42.805,6.029,CST-1368DR,4362,4783,11647,01.173,551
2023-03-06T05:30:59,42.805,6.029,CST-1368DR,4362,4779,11638,01.176,551
2023-03-06T05:34:00,42.805,6.029,CST-1368DR,4362,4777,11634,01.177,551
2023-03-06T05:37:02,42.805,6.029,CST-1368DR,4362,4779,11637,01.176,551
2023-03-06T05:40:03,42.805,6.029,CST-1368DR,4362,4775,11628,01.180,551
2023-03-06T05:43:05,42.805,6.029,CST-1368DR,4362,4774,11626,01.180,551
2023-03-06T05:46:06,42.805,6.029,CST-1368DR,4362,4777,11634,01.177,551
2023-03-06T05:49:08,42.805,6.029,CST-1368DR,4362,4771,11619,01.183,551
2023-03-06T05:52:10,42.805,6.029,CST-1368DR,4362,4774,11625,01.181,551
2023-03-06T05:55:11,42.805,6.029,CST-1368DR,4362,4770,11616,01.184,551
2023-03-06T05:58:13,42.805,6.029,CST-1368DR,4362,4773,11624,01.181,551
2023-03-06T06:01:14,42.805,6.029,CST-1368DR,4362,4769,11615,01.184,551
2023-03-06T06:04:16,42.805,6.029,CST-1368DR,4362,4769,11615,01.184,551
2023-03-06T06:07:18,42.805,6.029,CST-1368DR,4362,4768,11612,01.185,551
2023-03-06T06:10:19,42.805,6.029,CST-1368DR,4362,4769,11613,01.185,551
2023-03-06T06:13:21,42.805,6.029,CST-1368DR,4362,4770,11615,01.184,551
2023-03-06T06:16:22,42.805,6.029,CST-1368DR,4362,4766,11608,01.186,551
2023-03-06T06:19:24,42.805,6.029,CST-1368DR,4362,4771,11618,01.183,551
2023-03-06T06:22:25,42.805,6.029,CST-1368DR,4362,4769,11613,01.185,551
2023-03-06T06:25:27,42.805,6.029,CST-1368DR,4362,4770,11617,01.183,551
2023-03-06T06:28:29,42.805,6.029,CST-1368DR,4362,4770,11617,01.183,551
2023-03-06T06:31:30,42.805,6.029,CST-1368DR,4362,4768,11611,01.185,551
2023-03-06T06:34:32,42.805,6.029,CST-1368DR,4362,4774,11627,01.180,551
2023-03-06T06:37:33,42.805,6.029,CST-1368DR,4362,4770,11617,01.183,551
2023-03-06T06:40:35,42.805,6.029,CST-1368DR,4362,4771,11618,01.183,551
2023-03-06T06:43:37,42.805,6.029,CST-1368DR,4362,4770,11617,01.183,551
2023-03-06T06:46:38,42.805,6.029,CST-1368DR,4362,4769,11614,01.184,551
2023-03-06T06:49:40,42.805,6.029,CST-1368DR,4362,4771,11618,01.183,551
2023-03-06T06:52:41,42.805,6.029,CST-1368DR,4362,4769,11614,01.184,551
2023-03-06T06:55:43,42.805,6.029,CST-1368DR,4362,4774,11625,01.181,551
2023-03-06T06:58:44,42.805,6.029,CST-1368DR,4362,4772,11622,01.182,551
2023-03-06T07:01:46,42.805,6.029,CST-1368DR,4362,4770,11615,01.184,551
2023-03-06T07:04:48,42.805,6.029,CST-1368DR,4362,4766,11608,01.186,551
2023-03-06T07:07:49,42.805,6.029,CST-1368DR,4362,4771,11619,01.183,551
2023-03-06T07:10:51,42.805,6.029,CST-1368DR,4362,4767,11610,01.186,551
2023-03-06T07:13:52,42.805,6.029,CST-1368DR,4362,4767,11610,01.186,551
2023-03-06T07:16:54,42.805,6.029,CST-1368DR,4362,4766,11607,01.187,551
2023-03-06T07:19:55,42.805,6.029,CST-1368DR,4362,4769,11614,01.184,551
2023-03-06T07:22:57,42.805,6.029,CST-1368DR,4362,4769,11613,01.185,551
2023-03-06T07:25:59,42.805,6.029,CST-1368DR,4362,4769,11613,01.185,551
2023-03-06T07:29:00,42.805,6.029,CST-1368DR,4362,4768,11612,01.185,551
2023-03-06T07:32:02,42.805,6.029,CST-1368DR,4362,4769,11613,01.185,551
2023-03-06T07:35:03,42.805,6.029,CST-1368DR,4362,4770,11617,01.183,551
2023-03-06T07:38:05,42.805,6.029,CST-1368DR,4362,4769,11615,01.184,551
2023-03-06T07:41:07,42.805,6.029,CST-1368DR,4362,4769,11614,01.184,551
2023-03-06T07:44:08,42.805,6.029,CST-1368DR,4362,4769,11614,01.184,551
2023-03-06T07:47:10,42.805,6.029,CST-1368DR,4362,4769,11613,01.185,551
2023-03-06T07:50:11,42.805,6.029,CST-1368DR,4362,4759,11590,01.193,551
2023-03-06T07:53:13,42.805,6.029,CST-1368DR,4362,4768,11612,01.185,551
2023-03-06T07:56:14,42.805,6.029,CST-1368DR,4362,4768,11611,01.185,551
2023-03-06T07:59:16,42.805,6.029,CST-1368DR,4362,4769,11614,01.184,551
2023-03-06T08:02:18,42.805,6.029,CST-1368DR,4362,4769,11614,01.184,551
2023-03-06T08:05:19,42.805,6.029,CST-1368DR,4362,4769,11614,01.184,551
2023-03-06T08:08:21,42.805,6.029,CST-1368DR,4362,4770,11616,01.184,551
2023-03-06T08:11:22,42.805,6.029,CST-1368DR,4362,4764,11601,01.189,551
2023-03-06T08:14:24,42.805,6.029,CST-1368DR,4362,4769,11614,01.184,551
2023-03-06T08:17:25,42.805,6.029,CST-1368DR,4362,4770,11615,01.184,551
2023-03-06T08:20:27,42.805,6.029,CST-1368DR,4362,4768,11611,01.185,551
2023-03-06T08:23:29,42.805,6.029,CST-1368DR,4362,4766,11608,01.186,551
2023-03-06T08:26:30,42.805,6.029,CST-1368DR,4362,4768,11611,01.185,551
2023-03-06T08:29:32,42.805,6.029,CST-1368DR,4362,4766,11608,01.186,551
2023-03-06T08:32:33,42.805,6.029,CST-1368DR,4362,4769,11613,01.185,551
2023-03-06T08:35:35,42.805,6.029,CST-1368DR,4362,4767,11608,01.186,551
2023-03-06T08:38:37,42.805,6.029,CST-1368DR,4362,4767,11609,01.186,551
2023-03-06T08:41:38,42.805,6.029,CST-1368DR,4362,4769,11615,01.184,551
2023-03-06T08:44:40,42.805,6.029,CST-1368DR,4362,4770,11615,01.184,551
2023-03-06T08:47:41,42.805,6.029,CST-1368DR,4362,4770,11617,01.183,551
2023-03-06T08:50:43,42.805,6.029,CST-1368DR,4362,4768,11611,01.185,551
2023-03-06T08:53:44,42.805,6.029,CST-1368DR,4362,4768,11611,01.185,551
2023-03-06T08:56:46,42.805,6.029,CST-1368DR,4362,4767,11608,01.186,551
2023-03-06T08:59:48,42.805,6.029,CST-1368DR,4362,4768,11612,01.185,551
2023-03-06T09:02:49,42.805,6.029,CST-1368DR,4362,4769,11614,01.184,551
2023-03-06T09:05:51,42.805,6.029,CST-1368DR,4362,4768,11612,01.185,551
2023-03-06T09:08:52,42.805,6.029,CST-1368DR,4362,4768,11611,01.185,551
2023-03-06T09:11:54,42.805,6.029,CST-1368DR,4362,4767,11609,01.186,551
2023-03-06T09:14:55,42.805,6.029,CST-1368DR,4362,4768,11611,01.185,551
2023-03-06T09:17:57,42.805,6.029,CST-1368DR,4362,4767,11610,01.186,551
2023-03-06T09:20:59,42.805,6.029,CST-1368DR,4362,4766,11607,01.187,551
2023-03-06T09:24:00,42.805,6.029,CST-1368DR,4362,4770,11615,01.184,551
2023-03-06T09:27:02,42.805,6.029,CST-1368DR,4362,4761,11595,01.191,551
2023-03-06T09:30:03,42.805,6.029,CST-1368DR,4362,4770,11615,01.184,551
2023-03-06T09:33:05,42.805,6.029,CST-1368DR,4362,4772,11622,01.182,551
2023-03-06T09:36:07,42.805,6.029,CST-1368DR,4362,4772,11621,01.182,551
2023-03-06T09:39:08,42.805,6.029,CST-1368DR,4362,4770,11615,01.184,551
2023-03-06T09:42:10,42.805,6.029,CST-1368DR,4362,4772,11622,01.182,551
2023-03-06T09:45:11,42.805,6.029,CST-1368DR,4362,4769,11614,01.184,551
2023-03-06T09:48:13,42.805,6.029,CST-1368DR,4362,4769,11614,01.184,551
2023-03-06T09:51:14,42.805,6.029,CST-1368DR,4362,4772,11622,01.182,551
2023-03-06T09:54:16,42.805,6.029,CST-1368DR,4362,4772,11621,01.182,551
2023-03-06T09:57:18,42.805,6.029,CST-1368DR,4362,4772,11622,01.182,551
2023-03-06T10:00:19,42.805,6.029,CST-1368DR,4362,4772,11622,01.182,551
2023-03-06T10:03:21,42.805,6.029,CST-1368DR,4362,4772,11622,01.182,551
2023-03-06T10:06:22,42.805,6.029,CST-1368DR,4362,4772,11622,01.182,551
2023-03-06T10:09:24,42.805,6.029,CST-1368DR,4362,4762,11597,01.190,551
2023-03-06T10:12:25,42.805,6.029,CST-1368DR,4362,4774,11625,01.181,551
2023-03-06T10:15:27,42.805,6.029,CST-1368DR,4362,4772,11622,01.182,551
2023-03-06T10:18:29,42.805,6.029,CST-1368DR,4362,4772,11622,01.182,551
2023-03-06T10:21:30,42.805,6.029,CST-1368DR,4362,4771,11619,01.183,551
2023-03-06T10:24:32,42.805,6.029,CST-1368DR,4362,4771,11620,01.182,551
2023-03-06T10:27:33,42.805,6.029,CST-1368DR,4362,4772,11622,01.182,551
2023-03-06T10:30:35,42.805,6.029,CST-1368DR,4362,4773,11623,01.181,551
2023-03-06T10:33:37,42.805,6.029,CST-1368DR,4362,4775,11628,01.180,551
2023-03-06T10:36:38,42.805,6.029,CST-1368DR,4362,4773,11624,01.181,551
2023-03-06T10:39:40,42.805,6.029,CST-1368DR,4362,4776,11630,01.179,551
2023-03-06T10:42:41,42.805,6.029,CST-1368DR,4362,4775,11628,01.180,551
2023-03-06T10:45:43,42.805,6.029,CST-1368DR,4362,4773,11623,01.181,551
2023-03-06T10:48:44,42.805,6.029,CST-1368DR,4362,4774,11626,01.180,551
2023-03-06T10:51:46,42.805,6.029,CST-1368DR,4362,4773,11625,01.181,551
2023-03-06T10:54:48,42.805,6.029,CST-1368DR,4362,4772,11622,01.182,551
2023-03-06T10:57:49,42.805,6.029,CST-1368DR,4362,4773,11623,01.181,551
2023-03-06T11:00:51,42.805,6.029,CST-1368DR,4362,4773,11623,01.181,551
2023-03-06T11:03:52,42.805,6.029,CST-1368DR,4362,4772,11621,01.182,551
2023-03-06T11:06:54,42.805,6.029,CST-1368DR,4362,4775,11628,01.180,551
2023-03-06T11:09:55,42.805,6.029,CST-1368DR,4362,4773,11624,01.181,551
2023-03-06T11:12:57,42.805,6.029,CST-1368DR,4362,4772,11621,01.182,551
2023-03-06T11:15:59,42.805,6.029,CST-1368DR,4362,4770,11617,01.183,551
2023-03-06T11:19:00,42.805,6.029,CST-1368DR,4362,4768,11612,01.185,551
2023-03-06T11:22:02,42.805,6.029,CST-1368DR,4362,4771,11619,01.183,551
2023-03-06T11:25:03,42.805,6.029,CST-1368DR,4362,4771,11619,01.183,551
2023-03-06T11:28:05,42.805,6.029,CST-1368DR,4362,4772,11622,01.182,551
2023-03-06T11:31:07,42.805,6.029,CST-1368DR,4362,4773,11623,01.181,551
2023-03-06T11:34:08,42.805,6.029,CST-1368DR,4362,4778,11636,01.177,551
2023-03-06T11:37:10,42.805,6.029,CST-1368DR,4362,4775,11628,01.180,551
2023-03-06T11:40:11,42.805,6.029,CST-1368DR,4362,4776,11630,01.179,551
2023-03-06T11:43:13,42.805,6.029,CST-1368DR,4362,4774,11626,01.180,551
2023-03-06T11:46:14,42.805,6.029,CST-1368DR,4362,4773,11624,01.181,551
2023-03-06T11:49:16,42.805,6.029,CST-1368DR,4362,4775,11628,01.180,551
2023-03-06T11:52:18,42.805,6.029,CST-1368DR,4362,4772,11622,01.182,551
2023-03-06T11:55:19,42.805,6.029,CST-1368DR,4362,4775,11628,01.180,551
2023-03-06T11:58:21,42.805,6.029,CST-1368DR,4362,4776,11631,01.178,551
2023-03-06T12:01:22,42.805,6.029,CST-1368DR,4362,4773,11623,01.181,551
2023-03-06T12:04:24,42.805,6.029,CST-1368DR,4362,4774,11625,01.181,551
2023-03-06T12:07:25,42.805,6.029,CST-1368DR,4362,4776,11631,01.178,551
2023-03-06T12:10:27,42.805,6.029,CST-1368DR,4362,4779,11637,01.176,551
2023-03-06T12:13:29,42.805,6.029,CST-1368DR,4362,4777,11633,01.178,551
2023-03-06T12:16:30,42.805,6.029,CST-1368DR,4362,4776,11632,01.178,551
2023-03-06T12:19:32,42.805,6.029,CST-1368DR,4362,4775,11628,01.180,551
2023-03-06T12:22:33,42.805,6.029,CST-1368DR,4362,4788,11659,01.169,551
2023-03-06T12:25:35,42.805,6.029,CST-1368DR,4362,4777,11634,01.177,551
2023-03-06T12:28:36,42.805,6.029,CST-1368DR,4362,4776,11631,01.178,551
2023-03-06T12:31:38,42.805,6.029,CST-1368DR,4362,4777,11634,01.177,551
2023-03-06T12:34:40,42.805,6.029,CST-1368DR,4362,4775,11629,01.179,551
2023-03-06T12:37:41,42.805,6.029,CST-1368DR,4362,4777,11634,01.177,551
2023-03-06T12:40:43,42.805,6.029,CST-1368DR,4362,4776,11632,01.178,551
2023-03-06T12:43:44,42.805,6.029,CST-1368DR,4362,4777,11633,01.178,551
2023-03-06T12:46:46,42.805,6.029,CST-1368DR,4362,4778,11636,01.177,551
2023-03-06T12:49:48,42.805,6.029,CST-1368DR,4362,4779,11639,01.176,551
2023-03-06T12:52:49,42.805,6.029,CST-1368DR,4362,4779,11637,01.176,551
2023-03-06T12:55:51,42.805,6.029,CST-1368DR,4362,4783,11648,01.173,551
2023-03-06T12:58:52,42.805,6.029,CST-1368DR,4362,4777,11634,01.177,551
2023-03-06T13:01:54,42.805,6.029,CST-1368DR,4362,4779,11639,01.176,551
2023-03-06T13:04:55,42.805,6.029,CST-1368DR,4361,4776,11634,01.177,551
2023-03-06T13:07:57,42.805,6.029,CST-1368DR,4362,4778,11636,01.177,551
2023-03-06T13:10:59,42.805,6.029,CST-1368DR,4361,4770,11619,01.183,551
2023-03-06T13:14:00,42.805,6.029,CST-1368DR,4362,4777,11634,01.177,551
2023-03-06T13:17:02,42.805,6.029,CST-1368DR,4362,4778,11635,01.177,551
2023-03-06T13:20:03,42.805,6.029,CST-1368DR,4362,4777,11633,01.178,551
2023-03-06T13:23:05,42.805,6.029,CST-1368DR,4362,4776,11631,01.178,551
2023-03-06T13:26:06,42.805,6.029,CST-1368DR,4362,4774,11625,01.181,551
2023-03-06T13:29:08,42.805,6.029,CST-1368DR,4362,4760,11593,01.192,551
2023-03-06T13:32:10,42.805,6.029,CST-1368DR,4362,4753,11576,01.197,551
2023-03-06T13:35:11,42.805,6.029,CST-1368DR,4362,4760,11591,01.192,551
2023-03-06T13:38:13,42.805,6.029,CST-1368DR,4362,4764,11602,01.188,551
2023-03-06T13:41:14,42.805,6.029,CST-1368DR,4362,4763,11600,01.189,551
2023-03-06T13:44:16,42.805,6.029,CST-1368DR,4362,4761,11594,01.191,551
2023-03-06T13:47:17,42.805,6.029,CST-1368DR,4362,4758,11586,01.194,551
2023-03-06T13:50:19,42.805,6.029,CST-1368DR,4361,4757,11587,01.194,551
2023-03-06T13:53:21,42.805,6.029,CST-1368DR,4362,4760,11591,01.192,551
2023-03-06T13:56:22,42.805,6.029,CST-1368DR,4362,4762,11597,01.190,551
2023-03-06T13:59:24,42.805,6.029,CST-1368DR,4362,4765,11605,01.187,551
2023-03-06T14:02:25,42.805,6.029,CST-1368DR,4362,4763,11600,01.189,551
2023-03-06T14:05:27,42.805,6.029,CST-1368DR,4362,4765,11605,01.187,551
2023-03-06T14:08:29,42.805,6.029,CST-1368DR,4362,4763,11600,01.189,551
2023-03-06T14:11:30,42.805,6.029,CST-1368DR,4362,4762,11598,01.190,551
2023-03-06T14:14:32,42.805,6.029,CST-1368DR,4362,4754,11578,01.197,551
2023-03-06T14:17:33,42.805,6.029,CST-1368DR,4361,4757,11588,01.193,551
2023-03-06T14:20:35,42.805,6.029,CST-1368DR,4361,4755,11583,01.195,551
2023-03-06T14:23:36,42.805,6.029,CST-1368DR,4361,4759,11592,01.192,551
2023-03-06T14:26:38,42.805,6.029,CST-1368DR,4362,4759,11589,01.193,551
2023-03-06T14:29:40,42.805,6.029,CST-1368DR,4362,4763,11599,01.190,551
2023-03-06T14:32:41,42.805,6.029,CST-1368DR,4361,4753,11578,01.197,551
2023-03-06T14:35:43,42.805,6.029,CST-1368DR,4362,4759,11590,01.193,551
2023-03-06T14:38:44,42.805,6.029,CST-1368DR,4362,4761,11594,01.191,551
2023-03-06T14:41:46,42.805,6.029,CST-1368DR,4362,4760,11593,01.192,551
2023-03-06T14:44:47,42.805,6.029,CST-1368DR,4362,4762,11597,01.190,551
2023-03-06T14:47:49,42.805,6.029,CST-1368DR,4362,4765,11603,01.188,551
2023-03-06T14:50:51,42.805,6.029,CST-1368DR,4362,4759,11589,01.193,551
2023-03-06T14:53:52,42.805,6.029,CST-1368DR,4362,4766,11606,01.187,551
2023-03-06T14:56:54,42.805,6.029,CST-1368DR,4362,4760,11592,01.192,551
2023-03-06T14:59:55,42.805,6.029,CST-1368DR,4362,4767,11609,01.186,551
2023-03-06T15:02:57,42.805,6.029,CST-1368DR,4362,4759,11591,01.192,551
2023-03-06T15:05:59,42.805,6.029,CST-1368DR,4362,4767,11610,01.186,551
2023-03-06T15:09:00,42.805,6.029,CST-1368DR,4362,4776,11632,01.178,551
2023-03-06T15:12:02,42.805,6.029,CST-1368DR,4362,4778,11635,01.177,551
2023-03-06T15:15:03,42.805,6.029,CST-1368DR,4361,4763,11602,01.188,551
2023-03-06T15:18:05,42.805,6.029,CST-1368DR,4361,4761,11596,01.191,551
2023-03-06T15:21:06,42.805,6.029,CST-1368DR,4362,4781,11643,01.174,551
2023-03-06T15:24:08,42.805,6.029,CST-1368DR,4362,4781,11642,01.175,551
2023-03-06T15:27:10,42.805,6.029,CST-1368DR,4362,4781,11642,01.175,551
2023-03-06T15:30:11,42.805,6.029,CST-1368DR,4362,4763,11598,01.190,551
2023-03-06T15:33:13,42.805,6.029,CST-1368DR,4362,4785,11654,01.171,551
2023-03-06T15:36:14,42.805,6.029,CST-1368DR,4362,4782,11645,01.174,551
2023-03-06T15:39:16,42.805,6.029,CST-1368DR,4362,4777,11633,01.178,551
2023-03-06T15:42:17,42.805,6.029,CST-1368DR,4362,4781,11642,01.175,551
2023-03-06T15:45:19,42.805,6.029,CST-1368DR,4362,4779,11639,01.176,551
2023-03-06T15:48:21,42.805,6.029,CST-1368DR,4362,4780,11640,01.175,551
2023-03-06T15:51:22,42.805,6.029,CST-1368DR,4362,4782,11647,01.173,551
2023-03-06T15:54:24,42.805,6.029,CST-1368DR,4362,4777,11633,01.178,551
2023-03-06T15:57:25,42.805,6.029,CST-1368DR,4362,4776,11632,01.178,551
2023-03-06T16:00:27,42.805,6.029,CST-1368DR,4362,4779,11639,01.176,551
2023-03-06T16:03:29,42.805,6.029,CST-1368DR,4362,4781,11642,01.175,551
2023-03-06T16:06:30,42.805,6.029,CST-1368DR,4362,4780,11640,01.175,551
2023-03-06T16:09:32,42.805,6.029,CST-1368DR,4362,4779,11638,01.176,551
2023-03-06T16:12:33,42.805,6.029,CST-1368DR,4362,4780,11641,01.175,551
2023-03-06T16:15:35,42.805,6.029,CST-1368DR,4362,4780,11640,01.175,551
2023-03-06T16:18:36,42.805,6.029,CST-1368DR,4362,4778,11635,01.177,551
2023-03-06T16:21:38,42.805,6.029,CST-1368DR,4362,4781,11642,01.175,551
2023-03-06T16:24:40,42.805,6.029,CST-1368DR,4362,4778,11636,01.177,551
2023-03-06T16:27:41,42.805,6.029,CST-1368DR,4362,4781,11642,01.175,551
2023-03-06T16:30:43,42.805,6.029,CST-1368DR,4362,4780,11640,01.175,551
2023-03-06T16:33:44,42.805,6.029,CST-1368DR,4362,4783,11649,01.172,551
2023-03-06T16:36:46,42.805,6.029,CST-1368DR,4362,4776,11631,01.178,551